Location: Unspecified
(0.0000°N, 0.0000°E)
Time: 10:18:58
(UTC+00:00)

Vanguard 3 - Pass Details

Date: 07 October 2022
Orbit: 509 x 3255 km, 33.3° (Epoch: 29 November)

Event Time Altitude Azimuth Distance (km) Brightness Sun altitude
Rises 20:02:51 0° 243° (WSW) 7,075 12.9 -33.6°
Reaches altitude 10° 20:10:46 10° 225° (SW) 6,193 12.1 -35.5°
Maximum altitude 20:21:53 17° 191° (S) 5,433 11.4 -38.3°
Drops below altitude 10° 20:31:57 10° 155° (SSE) 5,536 11.2 -40.8°
Enters shadow 20:34:10 - 148° (SSE) 5,680 11.2 -41.4°
